Portada
METAR-TAF:

METAR-TAF

Aeroports :

Mildura, Austràlia

latitud: 34-13-45S, longitud: 142-05-08E, altitud: 51 m

Observació

L'informe es va fer fa 27 minuts, a les 23:00 UTC
Vent 12 kt del Oest/Sud-Oest
Temperatura 17°C
Humitat 82%
Pressió 1001 hPa
Visibilitat 10 km o més
Núvols disperses a una alçada de 2300 ft
Núvols disperses a una alçada de 3300 ft

METAR: YMIA 122300Z AUTO 24012KT 9999 // SCT023 SCT033 17/14 Q1001

Hora: 10:27 (23:27 UTC)


TAF: manca

Observacions i pronòstics meteorològics de més de 4000 aeroports (METAR i TAF).

Les estacions disponibles són els punts grocs i vermells al mapa.

Posi el ratolí al punt desitjat per veure el nom de l'estació.

Feu clic per veure les observacions i els pronòstics meteorològics.

Per canviar el mapa: feu clic els botons verds amb una creu de color negre per apropar; al botó verd amb un guió per allunyar la imatge; o en les fletxes verdes per a mapes adjacents.


METAR-TAF: